Meteo pe oră la Dag

Astăzi, 15 Aprilie, Joi

Timp Temperatura Precipitaţii Vânt Presiune Umiditate
00:00 0°C° 0.2 mm 5 m/s 757 mmHg 95%
01:00 +1°C° 0.2 mm 5 m/s 757 mmHg 96%
02:00 0°C° 0.6 mm 5 m/s 756 mmHg 96%
03:00 -1°C° 0.6 mm 6 m/s 756 mmHg 96%
04:00 -1°C° 0.6 mm 6 m/s 756 mmHg 97%
05:00 -1°C° 0.7 mm 6 m/s 756 mmHg 97%
06:00 -1°C° 0.7 mm 6 m/s 756 mmHg 97%
07:00 -1°C° 0.7 mm 6 m/s 756 mmHg 97%
08:00 -1°C° 0.4 mm 6 m/s 756 mmHg 97%
09:00 -1°C° 0.4 mm 6 m/s 756 mmHg 97%
10:00 +1°C° 0.4 mm 6 m/s 756 mmHg 97%
11:00 +1°C° 0.7 mm 5 m/s 756 mmHg 95%
12:00 +1°C° 0.7 mm 5 m/s 756 mmHg 94%
13:00 +2°C° 0.7 mm 5 m/s 756 mmHg 92%
14:00 +2°C° 0.3 mm 5 m/s 756 mmHg 91%
15:00 +2°C° 0.3 mm 5 m/s 756 mmHg 90%
16:00 +4°C° 0.3 mm 4 m/s 756 mmHg 88%
17:00 +4°C° 0 mm 4 m/s 756 mmHg 88%
18:00 +4°C° 0 mm 4 m/s 756 mmHg 89%
19:00 +4°C° 0 mm 4 m/s 756 mmHg 89%
20:00 +4°C° 0 mm 4 m/s 756 mmHg 89%
21:00 +4°C° 0 mm 3 m/s 756 mmHg 89%
22:00 +3°C° 0 mm 3 m/s 756 mmHg 89%
23:00 +3°C° 0 mm 3 m/s 755 mmHg 90%

Mâine, 16 Aprilie, Vineri

Timp Temperatura Precipitaţii Vânt Presiune Umiditate
00:00 +3°C° 0 mm 3 m/s 755 mmHg 90%
01:00 +1°C° 0 mm 4 m/s 755 mmHg 91%
02:00 +1°C° 0.1 mm 4 m/s 755 mmHg 92%
03:00 +1°C° 0.1 mm 4 m/s 755 mmHg 93%
04:00 +1°C° 0.1 mm 4 m/s 755 mmHg 94%
05:00 +1°C° 0 mm 4 m/s 755 mmHg 94%
06:00 +1°C° 0 mm 4 m/s 755 mmHg 93%
07:00 +1°C° 0 mm 4 m/s 755 mmHg 93%
08:00 +1°C° 0 mm 4 m/s 755 mmHg 92%
09:00 +3°C° 0 mm 4 m/s 755 mmHg 92%
10:00 +3°C° 0 mm 4 m/s 755 mmHg 91%
11:00 +3°C° 0 mm 4 m/s 755 mmHg 92%
12:00 +3°C° 0 mm 4 m/s 755 mmHg 92%
13:00 +4°C° 0 mm 4 m/s 755 mmHg 93%
14:00 +4°C° 0 mm 3 m/s 755 mmHg 93%
15:00 +5°C° 0 mm 3 m/s 755 mmHg 92%
16:00 +5°C° 0 mm 3 m/s 755 mmHg 92%
17:00 +5°C° 0 mm 3 m/s 755 mmHg 93%
18:00 +4°C° 0 mm 3 m/s 755 mmHg 95%
19:00 +4°C° 0 mm 3 m/s 756 mmHg 97%
20:00 +5°C° 0 mm 2 m/s 756 mmHg 97%
21:00 +5°C° 0 mm 2 m/s 756 mmHg 98%
22:00 +5°C° 0 mm 2 m/s 756 mmHg 98%
23:00 +5°C° 0 mm 2 m/s 756 mmHg 98%

Poimâine, 17 Aprilie, Sâmbătă

Timp Temperatura Precipitaţii Vânt Presiune Umiditate
00:00 +5°C° 0 mm 2 m/s 756 mmHg 98%
01:00 +5°C° 0 mm 3 m/s 755 mmHg 98%
02:00 +5°C° 0 mm 3 m/s 755 mmHg 98%
03:00 +6°C° 0 mm 2 m/s 755 mmHg 98%
04:00 +6°C° 0 mm 2 m/s 755 mmHg 98%
05:00 +6°C° 0.3 mm 2 m/s 756 mmHg 98%
06:00 +6°C° 0.3 mm 2 m/s 756 mmHg 98%
07:00 +7°C° 0.3 mm 2 m/s 756 mmHg 98%
08:00 +7°C° 0 mm 3 m/s 756 mmHg 94%
09:00 +8°C° 0 mm 3 m/s 756 mmHg 91%
10:00 +9°C° 0 mm 3 m/s 756 mmHg 87%
11:00 +10°C° 0 mm 3 m/s 756 mmHg 84%
12:00 +10°C° 0 mm 3 m/s 756 mmHg 81%
13:00 +11°C° 0 mm 3 m/s 756 mmHg 78%
14:00 +11°C° 0.1 mm 3 m/s 756 mmHg 78%
15:00 +11°C° 0.1 mm 3 m/s 756 mmHg 78%
16:00 +11°C° 0.1 mm 3 m/s 756 mmHg 79%
17:00 +10°C° 0.1 mm 3 m/s 756 mmHg 83%
18:00 +9°C° 0.1 mm 3 m/s 757 mmHg 87%
19:00 +8°C° 0.1 mm 2 m/s 757 mmHg 91%
20:00 +7°C° 0 mm 2 m/s 757 mmHg 91%
21:00 +7°C° 0 mm 2 m/s 757 mmHg 92%
22:00 +7°C° 0 mm 2 m/s 757 mmHg 93%
23:00 +8°C° 0.1 mm 1 m/s 757 mmHg 93%

18 Aprilie, Duminică

Timp Temperatura Precipitaţii Vânt Presiune Umiditate
00:00 +8°C° 0.1 mm 1 m/s 757 mmHg 93%
01:00 +8°C° 0.1 mm 1 m/s 757 mmHg 94%
02:00 +8°C° 0.1 mm 1 m/s 756 mmHg 94%
03:00 +8°C° 0.1 mm 1 m/s 756 mmHg 94%
04:00 +8°C° 0.1 mm 1 m/s 756 mmHg 95%
05:00 +8°C° 0 mm 1 m/s 756 mmHg 94%
06:00 +8°C° 0 mm 1 m/s 756 mmHg 93%
07:00 +8°C° 0 mm 1 m/s 756 mmHg 92%
08:00 +8°C° 0.1 mm 2 m/s 756 mmHg 86%
09:00 +9°C° 0.1 mm 2 m/s 756 mmHg 79%
10:00 +10°C° 0.1 mm 3 m/s 756 mmHg 73%
11:00 +11°C° 0 mm 3 m/s 756 mmHg 68%
12:00 +11°C° 0 mm 3 m/s 756 mmHg 63%
13:00 +12°C° 0 mm 3 m/s 756 mmHg 58%
14:00 +12°C° 0 mm 3 m/s 756 mmHg 59%
15:00 +13°C° 0 mm 2 m/s 756 mmHg 60%
16:00 +13°C° 0 mm 2 m/s 756 mmHg 62%
17:00 +12°C° 0 mm 2 m/s 756 mmHg 66%
18:00 +10°C° 0 mm 2 m/s 757 mmHg 71%
19:00 +8°C° 0 mm 2 m/s 757 mmHg 75%
20:00 +8°C° 0 mm 2 m/s 757 mmHg 75%
21:00 +8°C° 0 mm 2 m/s 757 mmHg 75%
22:00 +8°C° 0 mm 2 m/s 757 mmHg 75%
23:00 +8°C° 0 mm 2 m/s 757 mmHg 75%

19 Aprilie, Luni

Timp Temperatura Precipitaţii Vânt Presiune Umiditate
00:00 +8°C° 0 mm 2 m/s 757 mmHg 75%
01:00 +8°C° 0 mm 2 m/s 757 mmHg 75%
02:00 +8°C° 0 mm 2 m/s 756 mmHg 76%
03:00 +8°C° 0 mm 2 m/s 756 mmHg 77%
04:00 +7°C° 0 mm 2 m/s 756 mmHg 78%
05:00 +8°C° 0 mm 2 m/s 756 mmHg 75%
06:00 +9°C° 0 mm 3 m/s 756 mmHg 73%
07:00 +9°C° 0 mm 3 m/s 756 mmHg 71%
08:00 +11°C° 0 mm 3 m/s 755 mmHg 66%
09:00 +12°C° 0 mm 4 m/s 755 mmHg 60%
10:00 +13°C° 0 mm 4 m/s 755 mmHg 55%
11:00 +13°C° 0.1 mm 4 m/s 755 mmHg 56%
12:00 +13°C° 0.1 mm 5 m/s 754 mmHg 56%
13:00 +13°C° 0.1 mm 5 m/s 754 mmHg 57%
14:00 +13°C° 0.2 mm 4 m/s 754 mmHg 60%
15:00 +13°C° 0.2 mm 4 m/s 753 mmHg 63%
16:00 +13°C° 0.2 mm 4 m/s 753 mmHg 66%
17:00 +12°C° 0.1 mm 3 m/s 753 mmHg 71%
18:00 +11°C° 0.1 mm 3 m/s 752 mmHg 75%
19:00 +10°C° 0.1 mm 3 m/s 752 mmHg 80%
20:00 +10°C° 0.2 mm 3 m/s 752 mmHg 84%
21:00 +10°C° 0.2 mm 3 m/s 752 mmHg 88%
22:00 +9°C° 0.2 mm 3 m/s 751 mmHg 93%
23:00 +9°C° 0 mm 3 m/s 751 mmHg 94%

20 Aprilie, Marţi

Timp Temperatura Precipitaţii Vânt Presiune Umiditate
00:00 +8°C° 0 mm 3 m/s 750 mmHg 95%
01:00 +8°C° 0 mm 3 m/s 750 mmHg 96%
02:00 +8°C° 0 mm 3 m/s 750 mmHg 96%
03:00 +8°C° 0 mm 3 m/s 750 mmHg 96%
04:00 +8°C° 0 mm 3 m/s 749 mmHg 96%
05:00 +7°C° 0.1 mm 4 m/s 749 mmHg 95%
06:00 +7°C° 0.1 mm 4 m/s 749 mmHg 94%
07:00 +7°C° 0.1 mm 4 m/s 748 mmHg 94%
08:00 +7°C° 0 mm 4 m/s 748 mmHg 93%
09:00 +7°C° 0 mm 4 m/s 748 mmHg 93%
10:00 +7°C° 0 mm 4 m/s 747 mmHg 93%
11:00 +7°C° 0.1 mm 4 m/s 747 mmHg 91%
12:00 +7°C° 0.1 mm 4 m/s 747 mmHg 90%
13:00 +8°C° 0.1 mm 4 m/s 747 mmHg 89%
14:00 +7°C° 0.1 mm 4 m/s 746 mmHg 89%
15:00 +7°C° 0.1 mm 4 m/s 746 mmHg 89%
16:00 +7°C° 0.1 mm 4 m/s 745 mmHg 89%
17:00 +7°C° 0.1 mm 4 m/s 745 mmHg 90%
18:00 +6°C° 0.1 mm 4 m/s 745 mmHg 91%
19:00 +6°C° 0.1 mm 4 m/s 745 mmHg 92%
20:00 +7°C° 0 mm 3 m/s 745 mmHg 93%
21:00 +7°C° 0 mm 3 m/s 744 mmHg 93%
22:00 +5°C° 0 mm 3 m/s 744 mmHg 94%
23:00 +5°C° 0.1 mm 3 m/s 744 mmHg 95%
Arată mai mult

Formular de consimțământ

Meteoprog și furnizorii noștri de servicii pot stoca și accesa date personale, precum cookies, identificatori de dispozitiv sau alte tehnologii similare pe dispozitivul dumneavoastră și procesa astfel de date pentru a personaliza conținutul și reclamele, dar și pentru a oferi caracteristici de social media și pentru a analiza traficul.

  • Stocarea și/sau accesarea informațiilor pe dispozitivul dumneavoastră

    Cookies, identificatori de dispozitiv sau alte informații pot fi stocate sau accesate pe dispozitiv în scopurile indicate mai sus.

  • Reclame și conținut personalizat, evaluarea reclamelor și a conținutului, informații despre audiențe și dezvoltarea produselor

    Reclamele și conținutul pot fi personalizate pe baza unui profil. Pot fi adăugate date suplimentare pentru a personaliza mai bine reclamele și conținutul. Performanța reclamelor și conținutului poate fi măsurată. Pot fi obținute informații despre utilizatorii care au văzut reclamele și conținutul. Aceste date pot fi utilizate pentru a dezvolta sau îmbunătăți experiența utilizatorilor, sistemele și software-ul.

Dând clic pe ‘Sunt de acord’, permiteți utilizarea cookie-urilor menționate, a identificatorilor de dispozitiv, balizelor web sau altor tehnologii similare. Setările pot fi modificate din browser-ul dispozitivului dumneavoastră.

În anumite scopuri, interesele legitime pot prima asupra consimțământului. Puteți citi mai multe informații în acest sens în Politica privind Confidențialitatea Datelor și Cookie.